{"data":{"norad_id":56481,"intl_designator":"2023-064AK","name":"STARLINK-6222","alt_names":[],"object_type":"PAYLOAD","status":"ACTIVE","operator":null,"country":"US","launch_date":"2023-05-10","launch_site_code":"AFWTR","launch_vehicle":null,"mission":null,"orbit_class":"UNKNOWN","rcs_meters":null,"size_class":null,"mass_kg":null,"dimensions":null,"purposes":["comms"],"wikipedia_slug":null,"has_3d_model":false,"image_url":null,"decayed_at":null,"tle_current":{"epoch":"2026-09-20T22:00:03.000096Z","epoch_age_seconds":76069,"freshness":"FRESH","line1":"1 56481U 23064AK  26263.91670139 -.00005643  00000+0 -39831-3 0  9990","line2":"2 56481  70.0012 352.0448 0002020 313.2446 164.6027 15.04233757  5771","mean_motion":15.04233757,"eccentricity":0.000202,"inclination_deg":70.0012,"raan_deg":352.0448,"arg_perigee_deg":313.2446,"mean_anomaly_deg":164.6027,"bstar":-0.00039831,"rev_number":577,"period_min":95.729802186589,"perigee_km":552.45848392768,"apogee_km":555.2590102095,"semimajor_km":6931.9957470686,"source":"CELESTRAK","updated_at":"2026-09-21T09:00:33.447856Z"}}}